CP-7 DAVE
1 43615U 18070C 21364.60201610 .00013972 00000-0 29770-3 0 9997
2 43615 93.0219 27.7430 0011510 333.1765 26.8896 15.44831826184907
ELFIN-B
1 43616U 18070D 21364.60153767 .00022292 00000-0 39950-3 0 9993
2 43616 93.0166 28.2656 0010108 327.3631 32.7003 15.49824589185094
ELFIN-A
1 43617U 18070E 21364.54760087 .00024695 00000-0 43013-3 0 9990
2 43617 93.0224 29.3032 0009252 324.1631 35.9008 15.50633630185113
CubeBel-1
1 43666U 18083E 21364.53104563 .00006175 00000-0 28592-3 0 9996
2 43666 97.4394 30.3553 0013403 198.5757 317.9893 15.20396806175794
Changshagaoxin
1 43669U 18083H 21364.54964153 .00005237 00000-0 25247-3 0 9991
2 43669 97.4322 26.8575 0009765 192.2946 319.0406 15.19104874175646
Ten-Koh
1 43677U 18084G 21364.34368033 .00000807 00000-0 88036-4 0 9998
2 43677 97.9424 128.1917 0017313 107.7850 252.5258 14.90645925172482
PO-101
1 43678U 18084H 21364.44481959 .00000483 00000-0 53517-4 0 9999
2 43678 97.9472 131.0518 0011120 119.5625 240.6717 14.91866635172658
IRVINE 01
1 43693U 18088D 21364.58936299 .00013451 00000-0 48097-3 0 9992
2 43693 85.0334 64.3374 0015715 28.0347 332.1741 15.28561056174361
QO-100
1 43700U 18090A 21364.50875178 .00000160 00000-0 00000-0 0 9996
2 43700 0.0172 344.6869 0001924 329.1499 354.2814 1.00271951 11330
Reaktor Hello World
1 43743U 18096AA 21364.21015766 .00007391 00000-0 25457-3 0 9995
2 43743 97.3711 80.2046 0015163 305.4673 54.5152 15.30218363172054
MinXSS-2
1 43758U 18099A 21364.51986012 .00001578 00000-0 14386-3 0 9998
2 43758 97.6469 71.4577 0016581 111.2590 249.0404 14.96422264167839
AO-95
1 43770U 18099N 21364.16434593 .00001129 00000-0 10646-3 0 9992
2 43770 97.6446 69.8247 0015647 120.1940 240.0834 14.95638937167702
RANGE-B
1 43772U 18099Q 21364.41585863 .00002762 00000-0 25048-3 0 9995
2 43772 97.6551 71.3938 0015692 107.5703 252.7234 14.96041906167756
RANGE-A
1 43773U 18099R 21364.18842137 .00001321 00000-0 12435-3 0 9996
2 43773 97.6373 68.9599 0014859 108.9376 251.3457 14.95445846167694
MOVE-II
1 43780U 18099Y 21364.50468390 .00002083 00000-0 18831-3 0 9997
2 43780 97.6475 70.9510 0014383 115.8416 244.4291 14.96435343167786
SNUSat 2
1 43782U 18099AA 21364.16672601 .00000939 00000-0 89004-4 0 9992
2 43782 97.6448 70.2362 0014004 106.9965 253.2792 14.95857261167720
SnugLite
1 43784U 18099AC 21364.42491084 .00001393 00000-0 12890-3 0 9990
2 43784 97.6411 70.1648 0016341 113.1378 247.1567 14.96008917167787
ITASat 1
1 43786U 18099AE 21364.18116535 .00001126 00000-0 10555-3 0 9990
2 43786 97.6466 70.6546 0016307 114.1713 246.1215 14.95888766167749
EAGLET 1
1 43790U 18099AJ 21364.43917043 .00000649 00000-0 62518-4 0 9992
2 43790 97.6460 71.3936 0014577 115.9581 244.3144 14.96200762167519
ESEO
1 43792U 18099AL 21364.39257473 .00000735 00000-0 70707-4 0 9998
2 43792 97.6416 70.7681 0014627 114.0996 246.1757 14.95872109167551
CSIM
1 43793U 18099AM 21364.41954583 .00003010 00000-0 26533-3 0 9994
2 43793 97.6483 71.5806 0014554 109.1241 251.1558 14.97108342167582
Astrocast 0.1
1 43798U 18099AS 21364.15442798 .00002693 00000-0 24140-3 0 9998
2 43798 97.6481 71.4066 0014023 97.8206 262.4608 14.96545305167783
JO-97
1 43803U 18099AX 21364.17612894 .00001351 00000-0 12462-3 0 9997
2 43803 97.6427 70.3868 0016175 113.5879 246.7043 14.96202942167752
Suomi 100
1 43804U 18099AY 21364.45383892 .00001574 00000-0 14449-3 0 9996
2 43804 97.6422 70.6058 0016350 113.2424 247.0521 14.96156021167807
Al Farabi 2
1 43805U 18099AZ 21364.35453795 .00002983 00000-0 26700-3 0 9994
2 43805 97.6442 70.8440 0016789 112.7676 247.5329 14.96478905167805
CHOMPTT
1 43855U 18104G 21364.53263163 .00005494 00000-0 21779-3 0 9995
2 43855 85.0360 163.4930 0017865 136.9346 223.3300 15.24995548168969
ISAT
1 43879U 18111D 21364.53715072 .00001716 00000-0 15386-3 0 9990
2 43879 97.6742 268.2199 0012864 160.8858 199.2845 14.97010209162383
UWE-4
1 43880U 18111E 21364.29479939 .00002463 00000-0 21749-3 0 9994
2 43880 97.6788 268.5767 0012540 159.6300 200.5425 14.97233343164386
Sparrow
1 43881U 18111F 21364.45768128 .00001513 00000-0 13528-3 0 9995
2 43881 97.6791 268.9123 0012400 159.4259 200.7465 14.97306144164417
Lume 1
1 43908U 18111AJ 21364.49836902 .00006550 00000-0 24561-3 0 9990
2 43908 97.2126 252.7806 0018635 320.2069 39.7803 15.27409294167588
FO-98
1 43933U 19003B 21364.05327942 .00058926 00000-0 16515-2 0 9993
2 43933 97.1624 38.8854 0014030 58.4518 301.8095 15.36299754164028
FO-99
1 43937U 19003F 21364.60815201 .00006015 00000-0 22713-3 0 9998
2 43937 97.1541 39.8048 0023442 39.9495 320.3464 15.27105981164182
MYSat 1
1 44045U 18092F 21364.52935696 .00019101 00000-0 42656-3 0 9996
2 44045 51.6343 187.2692 0010015 196.3948 163.6716 15.43505338161705
AstroCast 0.2
1 44083U 19018F 21364.48421965 .00005073 00000-0 21287-3 0 9991
2 44083 97.3495 61.7414 0012464 11.7159 348.4366 15.23850077152732
AISTechSat 3
1 44103U 19018AB 21364.53893861 .00005371 00000-0 21733-3 0 9995
2 44103 97.3351 62.2385 0013384 19.8153 87.6431 15.25037690152885
AISat 1
1 44104U 19018AC 21364.23007089 .00004611 00000-0 14001-3 0 9998
2 44104 97.4114 81.9570 0055798 19.6431 340.6943 15.33053997153653
Prox-1
1 44339U 19036A 21364.61696397 .00002114 00000-0 44232-3 0 9991
2 44339 23.9989 178.3634 0010619 168.0391 192.0354 14.54037946133747
Oculus-ASR
1 44348U 19036K 21364.16950422 .00026136 00000-0 32135-3 0 9992
2 44348 28.5115 264.6859 0298965 236.6123 120.5530 15.20274367138633
Armadillo
1 44352U 19036P 21363.97973010 .00042869 -60017-5 43104-3 0 9992
2 44352 28.5281 225.4079 0249466 298.1790 59.3820 15.33322452138966
NO-104
1 44354U 19036R 21364.04648326 .00025687 00000-0 30507-3 0 9994
2 44354 28.5286 255.5845 0292919 248.8318 108.0741 15.22167065138719
NO-103
1 44355U 19036S 21364.61769356 .00091641 -42161-5 69260-3 0 9996
2 44355 28.5217 164.4336 0190174 37.2255 324.1366 15.50520838139679
Move-IIb
1 44398U 19038N 21364.57698067 .00007630 00000-0 40920-3 0 9997
2 44398 97.6040 328.1426 0023902 356.7131 3.3928 15.15009118137449
SONATE
1 44400U 19038Q 21364.56702908 .00003468 00000-0 19813-3 0 9992
2 44400 97.6151 327.7838 0024785 358.6124 1.5031 15.13137776137389
BeeSat 9
1 44412U 19038AC 21364.40951603 .00005142 00000-0 28338-3 0 9999
2 44412 97.6142 328.0825 0021750 3.4706 356.6672 15.14252923137098
JAISAT-1
1 44419U 19038F 21364.44871181 .00005860 00000-0 31822-3 0 9991
2 44419 97.6147 328.8248 0020578 1.2850 358.8431 15.14739023137458
LightSail-2
1 44420U 19036AC 21364.53717881 .00022540 00000-0 41987-2 0 9993
2 44420 24.0042 143.8137 0012142 245.6622 114.2604 14.63578573132207
Taurus 1
1 44530U 19059C 21364.45493519 .00001682 00000-0 48050-3 0 9993
2 44530 98.5496 96.4813 0012654 267.4985 92.4758 14.46395766121414
Duchifat 3
1 44854U 19089C 21364.47585971 .00002547 00000-0 20746-3 0 9994
2 44854 36.9674 21.0960 0008965 287.9480 72.0287 14.99928789112541
